Edgar B Speer — WQZ9670 — position and weather

sailwx.info

Track history (hours):
 
Tides and Currents Weather Stations Pressure Air Temp Water Temp Dewpoint Dewpoint Depression Visibility Wind Speed Wind Dir Waves Ship Positions

Edgar B Speer

More information available from US FCC via Universal Licensing System and Coast Guard Vessel Documentation Center.

Last reported at 2014-Sep-02 13:21 UTC. Time now 2014-Sep-03 02:09 UTC.
Position N 46°47' W 084°56'.

Length 306 m; draft 8 m.

Type: Cargo ship. MMSI: 366971330.

Date/timePositionNaut miles runAvg speedWind from/ knotsBaromVisibWave heightAir tempDewpointWater temp
2014-Sep-02 13:21N 46°47' W 084°56'1113.3
2014-Sep-02 12:33N 46°38' W 084°48'1212.5
2014-Sep-02 11:33N 46°29' W 084°35'7 7.0
2014-Sep-02 10:32N 46°30' W 084°25'8 3.2
2014-Sep-02 08:04N 46°26' W 084°15'5 8.5
2014-Sep-02 07:28N 46°21' W 084°12'6 6.1
2014-Sep-02 06:33N 46°17' W 084°07'8 7.6
2014-Sep-02 05:33N 46°10' W 084°03'13 9.9
2014-Sep-02 04:13N 45°58' W 083°53'812.2
2014-Sep-02 03:33N 45°53' W 084°02'1313.2
2014-Sep-02 02:33N 45°51' W 084°21'1313.3
2014-Sep-02 01:34N 45°50' W 084°40'1413.6
2014-Sep-02 00:33N 45°50' W 084°59'10 9.9
2014-Sep-01 23:34N 45°44' W 085°11'1413.7
2014-Sep-01 22:34N 45°33' W 085°22'1413.7
2014-Sep-01 21:34N 45°22' W 085°34'1413.9
2014-Sep-01 20:33N 45°11' W 085°46'1413.7
2014-Sep-01 19:33N 45°00' W 085°58'1413.6
2014-Sep-01 18:33N 44°52' W 086°14'1413.7
2014-Sep-01 17:30N 44°39' W 086°23'18713.2
2014-Sep-01 03:19N 41°37' W 087°19'200 6.1
2014-Aug-30 18:31N 44°53' W 086°26'2412.4
2014-Aug-30 16:33N 45°17' W 086°16'1212.3
2014-Aug-30 15:33N 45°28' W 086°11'1212.4
2014-Aug-30 14:33N 45°40' W 086°06'1212.1
2014-Aug-30 13:33N 45°47' W 085°52'1212.2
2014-Aug-30 12:33N 45°53' W 085°37'1212.0
2014-Aug-30 11:33N 45°53' W 085°19'1212.3
2014-Aug-30 10:33N 45°51' W 085°02'1212.2
2014-Aug-30 09:33N 45°49' W 084°45'1110.9
2014-Aug-30 08:33N 45°52' W 084°30'1312.5
2014-Aug-30 07:33N 45°53' W 084°12'1010.1
2014-Aug-30 06:33N 45°56' W 083°58'11 7.5
2014-Aug-30 05:04N 46°06' W 084°01'  
2014-Aug-26 17:07N 46°06' W 084°01'13 8.4
2014-Aug-26 15:33N 45°53' W 084°02'1313.1
2014-Aug-26 14:33N 45°51' W 084°20'1313.3
2014-Aug-26 13:33N 45°50' W 084°39'1313.4
2014-Aug-26 12:33N 45°49' W 084°59'10 9.6
2014-Aug-26 11:33N 45°44' W 085°10'1313.5
2014-Aug-26 10:33N 45°33' W 085°22'1413.5
2014-Aug-26 09:33N 45°23' W 085°33'1413.6
2014-Aug-26 08:33N 45°12' W 085°45'1313.4
2014-Aug-26 07:33N 45°01' W 085°56'1413.6
2014-Aug-26 06:33N 44°54' W 086°13'1414.0
2014-Aug-26 05:32N 44°41' W 086°22'1813.8
2014-Aug-26 04:13N 44°24' W 086°29'2313.9
2014-Aug-26 02:33N 44°01' W 086°37'1413.6
2014-Aug-26 01:33N 43°48' W 086°41'1413.6
2014-Aug-26 00:33N 43°35' W 086°45'1413.7
2014-Aug-25 23:33N 43°21' W 086°49'90 2.4
2014-Aug-24 10:15N 44°50' W 086°27'912.7
2014-Aug-24 09:33N 44°58' W 086°23'1312.7
2014-Aug-24 08:33N 45°11' W 086°19'1312.7
2014-Aug-24 07:33N 45°23' W 086°14'1212.5
2014-Aug-24 06:33N 45°35' W 086°09'1211.6
2014-Aug-24 05:33N 45°44' W 085°59'1212.5
2014-Aug-24 04:33N 45°50' W 085°43'1212.2
2014-Aug-24 03:33N 45°54' W 085°26'1312.8
2014-Aug-24 02:33N 45°52' W 085°08'1312.8
2014-Aug-24 01:33N 45°50' W 084°50'1111.5
2014-Aug-24 00:33N 45°51' W 084°34'1312.8
2014-Aug-23 23:33N 45°53' W 084°16'1212.1
2014-Aug-23 22:33N 45°55' W 083°58'10 7.2
2014-Aug-23 21:13N 46°05' W 084°01'  
Track history (hours):
 
Tides and Currents Weather Stations Pressure Air Temp Water Temp Dewpoint Dewpoint Depression Visibility Wind Speed Wind Dir Waves Ship Positions

Edgar B Speer

More information available from US FCC via Universal Licensing System and Coast Guard Vessel Documentation Center.

Last reported at 2014-Sep-02 13:21 UTC. Time now 2014-Sep-03 02:09 UTC.
Position N 46°47' W 084°56'.

Length 306 m; draft 8 m.

Type: Cargo ship. MMSI: 366971330.

Date/timePositionNaut miles runAvg speedWind from/ knotsBaromVisibWave heightAir tempDewpointWater temp
2014-Sep-02 13:21N 46°47' W 084°56'1113.3
2014-Sep-02 12:33N 46°38' W 084°48'1212.5
2014-Sep-02 11:33N 46°29' W 084°35'7 7.0
2014-Sep-02 10:32N 46°30' W 084°25'8 3.2
2014-Sep-02 08:04N 46°26' W 084°15'5 8.5
2014-Sep-02 07:28N 46°21' W 084°12'6 6.1
2014-Sep-02 06:33N 46°17' W 084°07'8 7.6
2014-Sep-02 05:33N 46°10' W 084°03'13 9.9
2014-Sep-02 04:13N 45°58' W 083°53'812.2
2014-Sep-02 03:33N 45°53' W 084°02'1313.2
2014-Sep-02 02:33N 45°51' W 084°21'1313.3
2014-Sep-02 01:34N 45°50' W 084°40'1413.6
2014-Sep-02 00:33N 45°50' W 084°59'10 9.9
2014-Sep-01 23:34N 45°44' W 085°11'1413.7
2014-Sep-01 22:34N 45°33' W 085°22'1413.7
2014-Sep-01 21:34N 45°22' W 085°34'1413.9
2014-Sep-01 20:33N 45°11' W 085°46'1413.7
2014-Sep-01 19:33N 45°00' W 085°58'1413.6
2014-Sep-01 18:33N 44°52' W 086°14'1413.7
2014-Sep-01 17:30N 44°39' W 086°23'18713.2
2014-Sep-01 03:19N 41°37' W 087°19'200 6.1
2014-Aug-30 18:31N 44°53' W 086°26'2412.4
2014-Aug-30 16:33N 45°17' W 086°16'1212.3
2014-Aug-30 15:33N 45°28' W 086°11'1212.4
2014-Aug-30 14:33N 45°40' W 086°06'1212.1
2014-Aug-30 13:33N 45°47' W 085°52'1212.2
2014-Aug-30 12:33N 45°53' W 085°37'1212.0
2014-Aug-30 11:33N 45°53' W 085°19'1212.3
2014-Aug-30 10:33N 45°51' W 085°02'1212.2
2014-Aug-30 09:33N 45°49' W 084°45'1110.9
2014-Aug-30 08:33N 45°52' W 084°30'1312.5
2014-Aug-30 07:33N 45°53' W 084°12'1010.1
2014-Aug-30 06:33N 45°56' W 083°58'11 7.5
2014-Aug-30 05:04N 46°06' W 084°01'  
2014-Aug-26 17:07N 46°06' W 084°01'13 8.4
2014-Aug-26 15:33N 45°53' W 084°02'1313.1
2014-Aug-26 14:33N 45°51' W 084°20'1313.3
2014-Aug-26 13:33N 45°50' W 084°39'1313.4
2014-Aug-26 12:33N 45°49' W 084°59'10 9.6
2014-Aug-26 11:33N 45°44' W 085°10'1313.5
2014-Aug-26 10:33N 45°33' W 085°22'1413.5
2014-Aug-26 09:33N 45°23' W 085°33'1413.6
2014-Aug-26 08:33N 45°12' W 085°45'1313.4
2014-Aug-26 07:33N 45°01' W 085°56'1413.6
2014-Aug-26 06:33N 44°54' W 086°13'1414.0
2014-Aug-26 05:32N 44°41' W 086°22'1813.8
2014-Aug-26 04:13N 44°24' W 086°29'2313.9
2014-Aug-26 02:33N 44°01' W 086°37'1413.6
2014-Aug-26 01:33N 43°48' W 086°41'1413.6
2014-Aug-26 00:33N 43°35' W 086°45'1413.7
2014-Aug-25 23:33N 43°21' W 086°49'90 2.4
2014-Aug-24 10:15N 44°50' W 086°27'912.7
2014-Aug-24 09:33N 44°58' W 086°23'1312.7
2014-Aug-24 08:33N 45°11' W 086°19'1312.7
2014-Aug-24 07:33N 45°23' W 086°14'1212.5
2014-Aug-24 06:33N 45°35' W 086°09'1211.6
2014-Aug-24 05:33N 45°44' W 085°59'1212.5
2014-Aug-24 04:33N 45°50' W 085°43'1212.2
2014-Aug-24 03:33N 45°54' W 085°26'1312.8
2014-Aug-24 02:33N 45°52' W 085°08'1312.8
2014-Aug-24 01:33N 45°50' W 084°50'1111.5
2014-Aug-24 00:33N 45°51' W 084°34'1312.8
2014-Aug-23 23:33N 45°53' W 084°16'1212.1
2014-Aug-23 22:33N 45°55' W 083°58'10 7.2
2014-Aug-23 21:13N 46°05' W 084°01'  

Dump ship's entire track history